Temp
5 5 5 5 5 5 5 5 5 5 5 5 5 5 5 5 5 5 5 5 5 5 5 5 5 5 5 6 6 6 6 7 7 7 7 7 7 8 8 8 8 8 8 9 9 9 9 10 10 10 10 9 9 9 9 10 10 10 10 10 10 9 9 10 10 10 10 10 10
4 4 4 4 4 4 4 4 4 4 4 4 4 4 4 4 4 4 4 4 4 4 4 4 4 4 4 4 4 5 5 5 6 6 6 7 7 7 7 7 7 7 8 8 8 9 9 9 10 10 10 10 9 9 9 9 10 10 10 10 10 9 9 9 10 10 10 10 10
3 3 4 4 4 4 4 4 4 3 3 3 3 3 3 3 3 3 3 3 3 3 3 3 3 3 3 3 4 4 4 4 4 5 5 5 6 6 6 6 6 7 7 7 8 8 9 9 10 10 10 10 9 8 8 9 9 10 10 10 10 10 9 9 9 9 10 10 10
2 3 3 3 3 3 3 3 3 3 2 2 2 2 2 2 2 2 2 2 2 2 2 2 2 2 2 3 3 3 3 3 3 3 4 4 4 4 5 5 6 6 6 7 7 8 9 9 10 10 10 10 9 8 8 9 9 9 9 9 10 10 10 9 9 9 10 10 10
1 2 2 2 2 2 2 2 2 1 1 1 1 1 1 1 1 1 2 2 2 2 2 2 2 2 2 2 2 2 2 2 2 3 3 3 3 4 4 5 5 5 6 6 7 8 8 9 10 10 10 9 8 8 8 8 9 9 9 9 9 9 10 10 10 10 10 10 10
0 1 1 1 1 1 1 1 1 0 0 0 1 1 1 1 1 1 1 1 1 1 1 1 2 2 2 2 2 2 2 2 2 2 2 3 3 3 4 4 4 5 5 6 6 7 8 9 9 9 9 8 7 7 7 7 8 9 9 9 9 9 9 9 9 10 10 10 10
-0 -0 0 0 0 0 0 0 0 0 0 1 1 1 1 1 1 1 1 1 1 1 1 1 1 1 1 2 2 2 2 2 2 2 2 3 3 3 3 3 3 4 4 5 5 6 7 7 8 7 7 6 6 6 6 6 7 7 8 8 8 8 8 8 9 9 9 10 10
-0 -0 -0 -0 0 0 0 0 0 0 0 0 0 0 0 0 1 1 1 1 1 1 1 1 1 1 1 1 2 2 2 2 2 2 2 2 2 2 2 3 3 3 4 4 5 5 6 6 6 6 6 5 5 5 5 5 6 6 6 7 7 7 7 8 8 8 9 9 9
-0 -0 -0 -0 -0 -0 -0 0 0 0 0 0 0 0 0 0 0 1 1 1 1 1 1 1 1 1 1 1 2 2 2 2 2 2 2 2 2 2 2 2 3 3 3 3 4 4 5 5 5 5 4 4 4 4 4 4 5 5 5 6 6 6 7 7 7 7 7 8 8
-0 -1 -1 -1 -1 -1 -0 -0 -0 0 0 0 -0 -0 -0 -0 0 0 0 0 0 0 1 1 0 1 1 1 1 1 2 2 2 2 2 2 2 2 2 2 2 2 3 3 3 3 4 4 4 3 3 3 3 3 3 3 3 4 4 5 5 5 6 6 6 6 7 7 7
-1 -1 -1 -1 -1 -1 -1 -0 -0 -0 -0 -0 -0 -0 -0 -0 -0 -0 -0 -0 -0 -0 -0 0 0 0 1 1 1 1 1 1 1 1 1 1 1 1 2 2 2 2 3 3 3 3 3 3 3 3 3 3 3 2 2 2 3 3 3 3 4 4 5 5 6 6 6 6 6
-1 -1 -1 -1 -1 -1 -1 -1 -1 -1 -0 -0 -0 -1 -1 -1 -1 -1 -1 -1 -1 -0 -0 -0 -0 0 0 0 0 0 1 1 1 0 0 0 0 0 1 1 1 2 2 3 3 3 3 3 3 3 3 2 2 2 2 2 2 2 3 3 3 4 4 5 5 5 5 5 5
-1 -1 -1 -1 -1 -1 -1 -1 -1 -1 -1 -1 -1 -1 -1 -1 -1 -1 -1 -1 -1 -1 -1 -1 -0 -0 -0 -0 -0 -0 -0 -0 -0 -0 -0 -0 -0 -0 -0 0 1 1 2 2 2 3 3 3 3 3 3 2 2 2 1 2 2 2 2 3 3 3 4 4 4 4 4 4 4
-1 -1 -1 -1 -1 -1 -1 -1 -1 -1 -1 -1 -1 -1 -1 -1 -1 -1 -1 -1 -1 -1 -1 -1 -1 -1 -1 -1 -1 -1 -1 -1 -1 -1 -1 -1 -1 -1 -1 -0 -0 0 1 1 1 2 2 2 2 2 2 2 1 1 1 1 1 2 2 2 2 3 3 3 3 3 3 4 4
-1 -1 -1 -1 -1 -1 -1 -1 -1 -1 -1 -1 -1 -1 -1 -1 -1 -1 -1 -1 -1 -1 -1 -1 -1 -1 -1 -1 -1 -1 -1 -1 -1 -1 -1 -1 -1 -1 -1 -1 -1 -1 -0 0 1 1 1 1 1 1 1 1 1 1 1 1 1 1 1 1 1 2 2 2 2 2 3 3 3
-1 -1 -1 -1 -1 -1 -1 -1 -1 -1 -1 -1 -1 -1 -1 -1 -1 -1 -1 -1 -1 -1 -1 -1 -1 -1 -1 -1 -2 -2 -1 -1 -1 -1 -1 -2 -2 -2 -2 -2 -2 -1 -1 -0 0 0 1 1 1 1 1 1 1 0 0 0 0 0 0 0 1 1 1 1 1 2 2 2 2
-1 -1 -1 -1 -1 -1 -1 -1 -1 -2 -2 -2 -2 -1 -1 -1 -1 -1 -1 -1 -1 -1 -1 -1 -1 -1 -1 -2 -2 -2 -2 -2 -2 -2 -2 -2 -3 -3 -3 -2 -2 -2 -1 -1 -1 -0 -0 0 0 0 -0 -0 -0 -0 -0 -1 -1 -1 -1 -0 -0 -0 0 0 1 1 1 1 1
-1 -1 -1 -1 -1 -1 -1 -2 -2 -2 -2 -2 -2 -2 -2 -2 -2 -2 -2 -2 -2 -2 -2 -2 -2 -2 -2 -2 -2 -2 -2 -2 -3 -3 -3 -3 -3 -3 -3 -3 -2 -2 -1 -1 -1 -1 -1 -1 -1 -1 -1 -1 -1 -1 -1 -1 -1 -1 -1 -1 -1 -1 -0 -0 -0 -0 0 0 -0
-1 -1 -1 -1 -1 -1 -2 -2 -2 -2 -2 -2 -2 -2 -2 -2 -2 -2 -2 -2 -2 -2 -2 -2 -2 -2 -3 -3 -3 -3 -3 -3 -3 -3 -3 -3 -3 -3 -3 -3 -2 -2 -2 -1 -1 -1 -1 -1 -1 -1 -1 -1 -1 -1 -1 -1 -1 -1 -1 -1 -1 -1 -1 -1 -1 -1 -1 -1 -1
-1 -1 -1 -1 -1 -2 -2 -2 -2 -2 -2 -2 -2 -2 -2 -2 -2 -2 -2 -2 -2 -2 -3 -3 -3 -3 -3 -3 -3 -3 -3 -3 -3 -3 -3 -3 -3 -3 -3 -3 -2 -2 -2 -2 -2 -2 -2 -2 -2 -2 -1 -2 -2 -2 -2 -1 -1 -1 -1 -1 -1 -1 -1 -1 -1 -1 -1 -1 -1
-1 -1 -1 -2 -2 -2 -2 -2 -2 -2 -2 -2 -2 -2 -2 -2 -2 -2 -2 -2 -2 -2 -3 -3 -3 -3 -3 -3 -3 -3 -3 -3 -3 -3 -3 -3 -3 -3 -3 -3 -3 -2 -2 -2 -2 -2 -2 -2 -2 -2 -2 -2 -2 -2 -2 -2 -2 -2 -1 -1 -1 -1 -1 -1 -1 -1 -1 -1 -1
-1 -2 -2 -2 -2 -2 -2 -2 -2 -2 -2 -2 -2 -2 -2 -2 -2 -2 -2 -2 -2 -2 -2 -2 -3 -3 -3 -3 -3 -3 -3 -2 -2 -2 -2 -2 -3 -3 -3 -3 -3 -3 -3 -3 -3 -2 -2 -2 -2 -2 -2 -2 -2 -2 -2 -2 -2 -2 -2 -2 -2 -2 -2 -2 -2 -2 -2 -2 -2
-2 -2 -2 -2 -2 -2 -2 -2 -2 -2 -2 -2 -2 -2 -2 -2 -2 -2 -2 -2 -2 -2 -2 -2 -2 -2 -3 -3 -3 -3 -2 -2 -2 -2 -2 -2 -2 -3 -3 -3 -3 -3 -3 -3 -3 -3 -3 -3 -3 -2 -2 -2 -2 -2 -2 -2 -2 -2 -2 -2 -2 -2 -2 -2 -2 -2 -2 -2 -2
-2 -2 -2 -2 -2 -2 -2 -2 -2 -1 -1 -2 -2 -2 -2 -2 -2 -2 -2 -2 -1 -2 -2 -2 -2 -2 -2 -2 -2 -2 -2 -2 -2 -2 -2 -2 -2 -3 -3 -3 -3 -3 -3 -4 -4 -3 -3 -3 -3 -3 -3 -2 -2 -2 -2 -2 -2 -2 -2 -2 -2 -2 -2 -2 -2 -2 -2 -2 -2
-2 -2 -2 -2 -2 -2 -2 -2 -1 -1 -1 -1 -2 -2 -2 -2 -2 -2 -2 -1 -1 -1 -1 -2 -2 -2 -2 -2 -2 -2 -2 -2 -2 -2 -2 -2 -2 -3 -3 -4 -4 -4 -4 -4 -4 -4 -3 -3 -3 -3 -3 -2 -2 -2 -2 -1 -1 -1 -1 -1 -1 -1 -2 -2 -2 -2 -2 -2 -2
-2 -2 -2 -2 -2 -2 -1 -1 -1 -1 -1 -1 -1 -2 -2 -2 -2 -1 -1 -1 -1 -1 -1 -1 -2 -2 -2 -2 -2 -2 -2 -2 -2 -3 -3 -3 -3 -3 -4 -4 -5 -5 -4 -3 -4 -4 -4 -3 -3 -3 -2 -2 -2 -1 -1 -1 -1 -1 -1 -1 -1 -1 -1 -2 -2 -2 -2 -2 -3
-1 -1 -1 -1 -1 -1 -1 -1 -1 -1 -1 -1 -1 -1 -1 -1 -1 -1 -1 -1 -1 -1 -1 -1 -1 -2 -2 -2 -2 -2 -2 -2 -2 -3 -3 -3 -3 -3 -4 -5 -6 -6 -5 -4 -3 -3 -4 -4 -3 -3 -2 -2 -2 -1 -1 -1 -1 -1 -1 -1 -1 -2 -2 -2 -2 -2 -2 -2 -3
-1 -1 -1 -1 -1 -1 -1 -1 -1 -1 -1 -1 -1 -1 -1 -1 -1 -1 -1 -1 -1 -1 -1 -1 -2 -2 -2 -2 -2 -2 -2 -2 -3 -3 -3 -3 -3 -3 -4 -5 -6 -6 -6 -5 -4 -3 -3 -3 -3 -3 -3 -2 -2 -2 -2 -1 -2 -2 -2 -2 -2 -2 -2 -2 -2 -2 -2 -2 -2
-1 -1 -1 -1 -1 -1 -1 -1 -1 -1 -1 -1 -1 -1 -1 -1 -1 -1 -1 -1 -1 -1 -2 -2 -2 -2 -2 -2 -2 -2 -2 -3 -3 -3 -3 -3 -3 -3 -4 -4 -5 -6 -6 -6 -5 -4 -3 -3 -3 -3 -3 -3 -2 -2 -2 -2 -2 -2 -2 -2 -2 -2 -2 -2 -2 -2 -2 -2 -2
-1 -1 -1 -1 -1 -1 -1 -1 -1 -1 -1 -1 -1 -1 -1 -1 -1 -1 -1 -1 -1 -2 -2 -2 -2 -2 -2 -2 -2 -2 -3 -3 -3 -3 -3 -3 -3 -3 -3 -4 -5 -6 -6 -6 -6 -6 -4 -3 -3 -3 -3 -3 -3 -2 -2 -2 -2 -2 -2 -2 -2 -2 -2 -2 -2 -2 -2 -2 -2
-1 -1 -1 -1 -1 -1 -1 -1 -1 -1 -1 -1 -1 -1 -1 -1 -1 -1 -1 -1 -1 -2 -2 -2 -2 -2 -2 -2 -2 -2 -2 -3 -3 -3 -3 -3 -3 -3 -3 -3 -4 -5 -6 -6 -7 -6 -6 -4 -3 -3 -3 -3 -3 -2 -2 -2 -2 -2 -2 -2 -2 -2 -2 -2 -2 -2 -2 -2 -2
-1 -1 -1 -1 -1 -1 -1 -1 -1 -1 -1 -1 -1 -1 -1 -1 -1 -1 -1 -1 -2 -2 -2 -2 -2 -2 -2 -2 -2 -2 -2 -3 -3 -3 -3 -3 -3 -3 -3 -3 -3 -4 -6 -6 -6 -6 -6 -5 -4 -3 -3 -3 -3 -2 -2 -2 -2 -2 -2 -2 -2 -2 -3 -3 -3 -3 -3 -3 -3
-1 -1 -1 -1 -1 -1 -1 -1 -1 -1 -1 -1 -1 -1 -1 -1 -1 -1 -2 -2 -2 -2 -2 -2 -2 -2 -2 -2 -2 -2 -2 -3 -3 -3 -3 -3 -3 -4 -4 -3 -3 -4 -6 -7 -6 -6 -7 -6 -5 -4 -3 -3 -3 -3 -2 -2 -2 -2 -3 -3 -3 -3 -3 -3 -3 -3 -3 -4 -4
-1 -1 -1 -1 -1 -1 -1 -1 -1 -2 -2 -1 -1 -1 -1 -1 -2 -2 -2 -2 -2 -2 -2 -2 -2 -2 -2 -2 -2 -3 -3 -3 -3 -3 -3 -4 -4 -4 -4 -4 -4 -5 -6 -7 -7 -7 -7 -7 -7 -5 -4 -4 -3 -3 -3 -3 -3 -3 -3 -3 -4 -4 -4 -4 -4 -4 -4 -4 -4
-1 -1 -1 -1 -1 -1 -1 -1 -2 -2 -2 -2 -1 -2 -2 -2 -2 -2 -2 -2 -2 -2 -2 -2 -2 -3 -3 -3 -3 -3 -3 -3 -4 -4 -4 -4 -4 -5 -5 -5 -5 -6 -7 -8 -8 -7 -7 -7 -8 -7 -6 -5 -4 -4 -4 -4 -5 -5 -5 -5 -5 -5 -5 -5 -5 -5 -5 -6 -6
-2 -2 -2 -2 -2 -2 -2 -2 -2 -2 -2 -2 -2 -2 -2 -2 -2 -2 -2 -2 -3 -3 -3 -3 -3 -3 -3 -3 -3 -3 -4 -4 -4 -4 -5 -5 -5 -5 -6 -6 -6 -6 -7 -8 -8 -8 -8 -7 -8 -8 -7 -5 -5 -5 -5 -5 -6 -6 -6 -6 -6 -6 -6 -6 -6 -6 -6 -7 -7
-2 -2 -2 -2 -2 -2 -2 -2 -2 -2 -2 -2 -2 -2 -2 -2 -2 -2 -2 -3 -3 -3 -3 -3 -3 -4 -4 -4 -4 -4 -5 -5 -5 -5 -6 -6 -6 -6 -6 -6 -6 -6 -7 -8 -8 -8 -8 -8 -8 -8 -6 -5 -5 -5 -5 -5 -6 -6 -6 -6 -6 -6 -6 -6 -6 -6 -7 -7 -7
-2 -2 -2 -2 -2 -2 -2 -2 -2 -2 -2 -2 -2 -2 -2 -2 -2 -2 -3 -3 -3 -3 -4 -4 -4 -4 -5 -5 -5 -5 -6 -6 -6 -6 -6 -6 -6 -6 -6 -6 -6 -5 -5 -7 -7 -8 -8 -7 -8 -7 -6 -4 -4 -4 -4 -5 -5 -5 -5 -5 -5 -5 -5 -5 -5 -5 -6 -6 -6
-2 -2 -2 -2 -2 -2 -2 -2 -2 -2 -2 -2 -2 -2 -2 -3 -3 -3 -3 -3 -4 -4 -4 -5 -5 -5 -6 -6 -6 -6 -6 -6 -6 -6 -5 -5 -5 -5 -5 -5 -5 -4 -4 -5 -6 -7 -7 -7 -7 -6 -5 -4 -4 -4 -4 -4 -4 -4 -4 -4 -4 -4 -4 -4 -4 -4 -5 -5 -5
-2 -2 -2 -2 -2 -2 -2 -2 -2 -2 -2 -3 -3 -3 -3 -3 -3 -4 -4 -4 -4 -5 -5 -5 -6 -6 -6 -6 -6 -6 -6 -5 -5 -5 -5 -5 -4 -4 -4 -4 -4 -4 -4 -4 -5 -6 -6 -6 -6 -6 -5 -4 -4 -4 -4 -4 -4 -4 -3 -3 -3 -3 -4 -4 -4 -4 -4 -4 -4
-3 -3 -3 -3 -3 -2 -2 -2 -3 -3 -3 -3 -3 -3 -4 -4 -4 -4 -5 -5 -5 -5 -5 -6 -6 -6 -6 -6 -5 -5 -5 -5 -5 -4 -4 -4 -4 -4 -4 -4 -4 -4 -4 -4 -4 -5 -6 -6 -6 -5 -5 -4 -4 -4 -4 -4 -3 -3 -3 -3 -3 -3 -3 -3 -4 -4 -4 -4 -4
Height
1452 1452 1453 1453 1454 1454 1454 1455 1455 1455 1456 1456 1456 1456 1456 1456 1456 1456 1456 1456 1456 1456 1456 1455 1455 1455 1455 1454 1454 1454 1454 1453 1453 1453 1453 1453 1453 1453 1453 1453 1453 1453 1453 1453 1453 1453 1453 1454 1454 1454 1454 1454 1455 1455 1455 1454 1454 1452 1451 1451 1452 1453 1454 1455 1455 1456 1456 1457 1457
1453 1453 1453 1454 1454 1454 1455 1455 1455 1455 1456 1456 1456 1456 1456 1456 1456 1456 1456 1455 1455 1455 1455 1455 1455 1455 1454 1454 1454 1453 1453 1453 1452 1452 1452 1452 1452 1452 1451 1451 1451 1451 1451 1451 1452 1452 1452 1452 1452 1452 1453 1453 1453 1453 1453 1453 1452 1451 1450 1450 1450 1450 1451 1451 1452 1452 1452 1452 1453
1453 1453 1454 1454 1454 1455 1455 1455 1455 1455 1456 1456 1456 1456 1456 1456 1455 1455 1455 1455 1455 1455 1455 1455 1454 1454 1454 1453 1453 1453 1453 1452 1452 1451 1451 1451 1450 1450 1450 1450 1450 1450 1450 1450 1450 1450 1450 1450 1450 1450 1451 1451 1451 1452 1451 1451 1450 1449 1449 1448 1448 1448 1449 1450 1450 1450 1451 1451 1451
1454 1454 1454 1454 1455 1455 1455 1455 1455 1456 1456 1456 1456 1456 1456 1456 1455 1455 1455 1455 1455 1455 1455 1454 1454 1454 1454 1453 1453 1453 1452 1452 1451 1451 1450 1450 1450 1450 1449 1449 1449 1449 1449 1448 1448 1448 1448 1448 1448 1449 1449 1450 1450 1450 1450 1449 1448 1448 1447 1447 1446 1446 1447 1447 1448 1448 1449 1449 1450
1454 1454 1455 1455 1455 1455 1455 1456 1456 1456 1456 1456 1456 1456 1456 1456 1456 1456 1456 1456 1455 1455 1455 1455 1455 1454 1454 1454 1453 1453 1452 1452 1451 1451 1450 1450 1450 1449 1449 1448 1448 1448 1447 1447 1446 1446 1446 1446 1446 1447 1447 1448 1448 1448 1448 1448 1447 1446 1446 1445 1445 1445 1445 1445 1445 1446 1447 1447 1448
1455 1455 1455 1456 1456 1456 1456 1457 1457 1457 1457 1457 1457 1457 1457 1457 1457 1457 1457 1456 1456 1456 1456 1456 1455 1455 1454 1454 1453 1453 1452 1452 1451 1451 1450 1450 1450 1449 1449 1448 1448 1447 1446 1446 1445 1445 1444 1444 1445 1445 1446 1446 1446 1446 1446 1446 1445 1445 1444 1444 1444 1444 1443 1443 1443 1444 1445 1445 1445
1457 1457 1457 1457 1458 1458 1458 1458 1458 1458 1458 1458 1458 1458 1458 1458 1458 1457 1457 1457 1457 1457 1457 1456 1456 1455 1455 1454 1454 1453 1452 1452 1452 1451 1451 1450 1450 1449 1449 1448 1447 1447 1446 1445 1445 1444 1443 1443 1443 1444 1445 1445 1445 1445 1445 1445 1444 1443 1443 1443 1443 1443 1442 1442 1442 1442 1442 1443 1443
1459 1459 1459 1459 1459 1460 1459 1459 1459 1459 1459 1459 1459 1458 1458 1458 1458 1458 1458 1458 1457 1457 1457 1457 1456 1456 1455 1455 1454 1453 1452 1452 1452 1451 1451 1451 1450 1450 1449 1448 1448 1447 1446 1445 1444 1443 1443 1442 1443 1444 1444 1444 1444 1444 1444 1443 1442 1442 1441 1441 1441 1441 1441 1441 1441 1441 1441 1441 1442
1460 1460 1461 1461 1461 1461 1461 1460 1460 1460 1460 1459 1459 1459 1459 1459 1459 1458 1458 1458 1458 1457 1457 1457 1456 1456 1455 1455 1454 1453 1453 1452 1452 1452 1451 1451 1450 1450 1449 1449 1448 1447 1446 1445 1444 1443 1443 1443 1443 1444 1444 1444 1444 1444 1443 1443 1442 1441 1440 1440 1440 1440 1440 1440 1440 1440 1440 1440 1440
1462 1462 1462 1462 1462 1462 1462 1461 1461 1461 1460 1460 1460 1460 1459 1459 1459 1459 1458 1458 1458 1458 1457 1457 1456 1456 1455 1455 1454 1453 1453 1452 1452 1452 1451 1451 1450 1450 1449 1449 1448 1447 1446 1445 1444 1443 1443 1443 1444 1444 1444 1444 1443 1443 1443 1442 1442 1440 1440 1440 1440 1439 1439 1439 1439 1439 1439 1439 1440
1464 1463 1463 1463 1463 1463 1463 1462 1462 1462 1461 1461 1460 1460 1460 1460 1459 1459 1459 1459 1458 1458 1457 1457 1456 1456 1455 1455 1454 1454 1453 1453 1452 1452 1451 1451 1450 1450 1449 1449 1448 1447 1446 1445 1444 1444 1444 1444 1444 1444 1443 1443 1443 1443 1443 1442 1441 1440 1440 1440 1439 1439 1438 1438 1438 1438 1438 1438 1438
1465 1464 1464 1464 1464 1464 1463 1463 1462 1462 1462 1462 1461 1461 1460 1460 1460 1460 1460 1459 1458 1458 1457 1457 1456 1456 1455 1455 1455 1454 1454 1453 1453 1452 1452 1451 1451 1450 1450 1449 1448 1447 1446 1445 1444 1444 1444 1444 1444 1443 1443 1443 1443 1443 1443 1442 1441 1440 1440 1439 1439 1438 1438 1438 1438 1438 1437 1437 1437
1466 1465 1465 1465 1465 1464 1464 1463 1463 1463 1462 1462 1462 1461 1461 1461 1460 1460 1460 1459 1459 1458 1458 1457 1457 1456 1456 1455 1455 1455 1454 1453 1453 1452 1452 1451 1451 1450 1450 1449 1448 1447 1446 1445 1445 1445 1444 1443 1443 1443 1443 1443 1443 1443 1442 1442 1441 1440 1440 1439 1438 1438 1438 1437 1437 1437 1436 1436 1436
1467 1467 1466 1466 1466 1465 1465 1464 1463 1463 1463 1463 1462 1462 1462 1461 1461 1461 1460 1460 1459 1459 1458 1458 1457 1457 1456 1456 1455 1455 1455 1454 1453 1453 1452 1452 1451 1451 1450 1449 1448 1447 1446 1446 1445 1445 1444 1443 1443 1443 1443 1443 1443 1443 1442 1442 1441 1440 1440 1439 1438 1438 1437 1437 1437 1436 1436 1435 1435
1468 1468 1467 1467 1467 1466 1465 1465 1464 1464 1464 1463 1463 1463 1462 1462 1462 1461 1461 1460 1460 1460 1459 1459 1458 1458 1457 1457 1456 1456 1455 1455 1454 1453 1453 1452 1452 1451 1451 1450 1449 1448 1447 1446 1445 1445 1444 1444 1443 1443 1443 1443 1443 1443 1442 1442 1441 1440 1440 1439 1439 1438 1437 1437 1436 1436 1435 1435 1435
1469 1469 1468 1468 1467 1467 1466 1466 1465 1465 1465 1464 1464 1463 1463 1463 1462 1462 1462 1461 1461 1460 1460 1460 1459 1458 1458 1458 1457 1457 1456 1455 1455 1454 1453 1453 1452 1452 1451 1450 1450 1449 1448 1447 1446 1445 1445 1444 1444 1444 1444 1444 1444 1443 1443 1442 1442 1441 1440 1440 1439 1438 1437 1437 1436 1435 1435 1435 1435
1470 1470 1469 1469 1468 1467 1467 1467 1466 1466 1465 1465 1465 1464 1464 1464 1463 1463 1462 1462 1462 1461 1461 1460 1460 1459 1459 1458 1458 1457 1457 1456 1455 1454 1454 1453 1453 1453 1452 1451 1450 1449 1448 1447 1446 1445 1445 1445 1445 1445 1445 1445 1444 1444 1444 1443 1442 1442 1441 1440 1439 1438 1437 1436 1436 1435 1435 1435 1434
1471 1471 1470 1470 1469 1468 1468 1468 1467 1467 1466 1466 1466 1465 1465 1465 1464 1464 1463 1463 1463 1462 1462 1461 1460 1460 1460 1459 1458 1458 1457 1456 1456 1455 1455 1454 1454 1453 1452 1451 1450 1449 1448 1448 1447 1447 1446 1446 1446 1446 1445 1445 1445 1445 1444 1444 1443 1442 1441 1440 1439 1438 1437 1436 1436 1435 1435 1434 1434
1472 1472 1471 1471 1470 1470 1469 1469 1468 1468 1468 1467 1467 1466 1466 1465 1465 1465 1464 1464 1463 1463 1462 1462 1461 1460 1460 1459 1459 1458 1458 1457 1456 1456 1455 1454 1454 1453 1452 1452 1451 1450 1449 1449 1448 1448 1448 1448 1447 1447 1446 1446 1446 1445 1445 1444 1443 1442 1441 1440 1439 1438 1437 1436 1436 1435 1435 1434 1434
1473 1473 1472 1472 1471 1471 1470 1470 1469 1469 1469 1468 1468 1467 1467 1466 1466 1465 1465 1464 1464 1464 1463 1463 1462 1461 1460 1460 1459 1459 1458 1458 1457 1456 1455 1455 1454 1453 1452 1452 1451 1451 1450 1450 1450 1449 1449 1449 1449 1448 1448 1447 1447 1446 1446 1445 1444 1443 1442 1440 1440 1438 1438 1437 1436 1436 1435 1435 1434
1474 1474 1473 1473 1472 1472 1471 1471 1470 1470 1470 1469 1469 1468 1468 1467 1467 1466 1465 1465 1465 1464 1464 1463 1463 1462 1461 1461 1460 1459 1459 1458 1457 1456 1456 1455 1454 1453 1453 1453 1452 1452 1451 1451 1451 1450 1450 1450 1450 1449 1449 1448 1447 1447 1446 1445 1444 1443 1442 1441 1440 1439 1438 1437 1436 1436 1435 1435 1434
1475 1475 1474 1474 1473 1473 1472 1472 1471 1471 1470 1470 1470 1469 1469 1468 1468 1467 1466 1466 1465 1465 1464 1464 1463 1463 1462 1461 1461 1460 1459 1459 1458 1457 1456 1455 1455 1454 1454 1454 1453 1453 1452 1452 1452 1451 1451 1451 1450 1450 1449 1448 1447 1447 1446 1445 1444 1443 1442 1440 1440 1439 1438 1437 1436 1435 1435 1435 1434
1476 1475 1475 1475 1474 1474 1473 1473 1472 1472 1471 1471 1470 1470 1470 1469 1469 1468 1467 1467 1466 1465 1465 1464 1464 1463 1462 1462 1461 1461 1460 1459 1459 1458 1457 1456 1455 1455 1454 1454 1454 1454 1453 1453 1453 1452 1452 1451 1451 1450 1449 1448 1447 1446 1445 1445 1444 1443 1442 1440 1440 1439 1438 1437 1436 1435 1435 1434 1434
1477 1476 1476 1475 1475 1475 1474 1474 1473 1473 1472 1472 1471 1471 1470 1470 1469 1469 1468 1467 1467 1466 1465 1465 1464 1464 1463 1462 1462 1461 1460 1460 1459 1459 1458 1457 1456 1455 1455 1455 1455 1454 1454 1454 1454 1453 1452 1452 1451 1450 1450 1449 1448 1446 1445 1445 1444 1443 1441 1440 1440 1439 1438 1437 1436 1435 1435 1434 1434
1477 1477 1477 1476 1475 1475 1475 1474 1474 1473 1473 1472 1472 1471 1471 1470 1470 1469 1469 1468 1467 1467 1466 1465 1465 1464 1464 1463 1462 1462 1461 1460 1460 1459 1458 1458 1457 1456 1455 1455 1455 1455 1455 1455 1454 1454 1453 1452 1451 1450 1450 1449 1448 1447 1446 1445 1444 1443 1442 1441 1440 1439 1439 1438 1437 1436 1435 1435 1434
1478 1478 1477 1477 1476 1476 1475 1475 1474 1474 1473 1473 1472 1472 1471 1470 1470 1470 1469 1468 1468 1467 1467 1466 1465 1465 1464 1464 1463 1462 1461 1461 1460 1460 1459 1458 1458 1457 1456 1456 1455 1455 1455 1455 1455 1454 1453 1452 1451 1450 1450 1449 1448 1447 1446 1445 1444 1443 1442 1441 1440 1439 1439 1438 1437 1436 1436 1435 1434
1479 1478 1478 1477 1477 1476 1475 1475 1475 1474 1474 1473 1473 1472 1471 1471 1470 1470 1469 1469 1468 1467 1467 1466 1466 1465 1465 1464 1463 1463 1462 1461 1460 1460 1459 1459 1458 1457 1456 1456 1456 1456 1455 1455 1454 1454 1453 1452 1451 1450 1450 1449 1448 1447 1446 1445 1444 1443 1442 1441 1440 1440 1439 1438 1437 1436 1435 1435 1434
1480 1479 1478 1478 1477 1476 1476 1475 1475 1475 1474 1473 1473 1472 1472 1471 1471 1470 1470 1469 1468 1468 1467 1466 1466 1465 1465 1464 1464 1463 1462 1462 1461 1460 1460 1459 1459 1458 1457 1456 1457 1457 1456 1455 1454 1453 1453 1452 1451 1450 1449 1448 1447 1446 1445 1445 1444 1443 1442 1441 1440 1439 1439 1438 1437 1436 1435 1435 1434
1480 1479 1479 1478 1478 1477 1476 1476 1475 1475 1474 1474 1473 1473 1472 1472 1471 1470 1470 1469 1469 1468 1467 1466 1466 1465 1465 1465 1464 1463 1463 1462 1461 1461 1460 1460 1459 1458 1457 1457 1457 1457 1457 1455 1454 1453 1452 1452 1451 1450 1449 1448 1447 1446 1445 1445 1444 1443 1442 1441 1440 1439 1438 1437 1437 1436 1435 1434 1433
1480 1480 1479 1479 1478 1477 1477 1476 1475 1475 1475 1474 1474 1473 1472 1472 1471 1471 1470 1470 1469 1468 1467 1467 1466 1466 1465 1465 1464 1464 1463 1462 1462 1461 1460 1460 1459 1458 1458 1457 1456 1457 1457 1456 1454 1453 1452 1451 1451 1450 1449 1448 1447 1446 1445 1444 1443 1442 1442 1441 1440 1439 1438 1437 1436 1436 1435 1434 1433
1480 1480 1479 1479 1478 1477 1477 1476 1476 1475 1475 1474 1474 1473 1473 1472 1471 1471 1470 1470 1469 1468 1468 1467 1467 1466 1465 1465 1464 1464 1463 1463 1462 1461 1461 1460 1460 1459 1458 1457 1456 1456 1456 1456 1455 1453 1452 1451 1450 1450 1449 1448 1447 1446 1445 1444 1443 1442 1442 1441 1440 1439 1438 1437 1436 1436 1435 1434 1433
1480 1480 1479 1479 1478 1478 1477 1476 1476 1475 1475 1474 1474 1473 1473 1472 1472 1471 1470 1470 1470 1469 1468 1468 1467 1466 1466 1465 1465 1464 1464 1463 1463 1462 1461 1460 1460 1459 1459 1458 1456 1456 1456 1456 1455 1454 1452 1451 1450 1450 1449 1448 1447 1446 1445 1444 1443 1442 1442 1441 1440 1439 1438 1437 1436 1436 1435 1434 1433
1480 1480 1479 1479 1478 1477 1477 1476 1476 1475 1475 1475 1474 1474 1473 1472 1472 1471 1471 1470 1470 1469 1469 1468 1467 1467 1466 1465 1465 1464 1464 1463 1463 1462 1461 1460 1460 1459 1459 1458 1457 1456 1456 1456 1455 1454 1453 1451 1450 1449 1449 1448 1447 1446 1445 1444 1443 1442 1442 1441 1440 1439 1438 1437 1437 1436 1435 1434 1433
1480 1480 1479 1478 1478 1477 1477 1476 1476 1475 1475 1475 1474 1474 1473 1472 1472 1471 1471 1470 1470 1469 1469 1468 1467 1467 1466 1465 1465 1464 1464 1463 1463 1462 1461 1460 1460 1459 1459 1458 1457 1456 1456 1456 1455 1454 1453 1452 1450 1448 1448 1447 1446 1445 1444 1443 1442 1442 1441 1440 1440 1439 1438 1437 1436 1435 1434 1434 1433
1480 1479 1479 1478 1478 1477 1476 1476 1475 1475 1475 1474 1474 1473 1473 1472 1472 1471 1471 1470 1470 1469 1469 1468 1467 1467 1466 1465 1465 1464 1464 1463 1463 1462 1461 1460 1460 1459 1458 1457 1456 1455 1455 1456 1455 1455 1454 1452 1450 1448 1447 1446 1445 1444 1443 1442 1441 1440 1440 1439 1438 1437 1437 1436 1435 1434 1433 1432 1431
1480 1479 1479 1478 1477 1477 1476 1476 1475 1475 1475 1474 1474 1473 1473 1472 1472 1471 1470 1470 1470 1469 1469 1468 1467 1467 1466 1465 1465 1464 1464 1463 1462 1461 1461 1460 1459 1458 1458 1457 1456 1455 1455 1455 1455 1454 1453 1452 1450 1448 1446 1445 1444 1443 1442 1441 1440 1440 1439 1438 1437 1436 1435 1435 1434 1433 1432 1431 1430
1480 1479 1478 1478 1477 1477 1476 1475 1475 1475 1474 1474 1473 1473 1473 1472 1472 1471 1471 1470 1470 1469 1469 1468 1467 1467 1466 1465 1465 1464 1463 1462 1462 1461 1460 1459 1458 1458 1457 1456 1455 1455 1454 1455 1454 1454 1453 1452 1450 1448 1446 1445 1444 1443 1442 1441 1440 1440 1439 1438 1437 1436 1435 1434 1433 1432 1431 1430 1430
1480 1479 1478 1478 1477 1477 1476 1476 1475 1475 1474 1474 1474 1473 1473 1472 1472 1471 1471 1470 1470 1469 1468 1468 1467 1466 1465 1465 1464 1463 1462 1461 1461 1460 1459 1459 1458 1457 1457 1456 1455 1455 1454 1454 1454 1453 1452 1451 1450 1449 1447 1445 1445 1443 1442 1442 1441 1440 1439 1438 1438 1437 1436 1435 1434 1433 1432 1431 1430
1480 1479 1478 1478 1477 1477 1476 1476 1475 1475 1475 1474 1474 1473 1473 1472 1472 1471 1471 1470 1470 1469 1468 1467 1466 1466 1465 1464 1463 1463 1462 1461 1461 1460 1459 1459 1458 1457 1457 1456 1456 1455 1454 1454 1454 1453 1452 1451 1450 1449 1447 1446 1445 1444 1443 1442 1441 1440 1440 1439 1438 1437 1436 1435 1435 1434 1432 1431 1431
1480 1479 1479 1478 1478 1477 1476 1476 1475 1475 1475 1474 1474 1473 1473 1472 1471 1471 1470 1469 1468 1468 1467 1466 1466 1465 1465 1464 1464 1463 1462 1462 1461 1460 1460 1459 1459 1458 1458 1457 1456 1455 1455 1454 1453 1453 1452 1451 1450 1449 1448 1446 1445 1445 1444 1442 1441 1441 1440 1439 1438 1437 1436 1436 1435 1434 1433 1432 1431
1480 1479 1479 1478 1478 1477 1476 1476 1475 1475 1474 1474 1473 1473 1472 1471 1470 1470 1469 1468 1467 1467 1466 1466 1465 1465 1465 1464 1464 1463 1463 1462 1462 1461 1460 1460 1459 1458 1458 1457 1456 1455 1454 1453 1453 1453 1452 1451 1450 1449 1448 1447 1445 1445 1444 1443 1442 1441 1440 1439 1438 1437 1436 1435 1435 1434 1433 1431 1430
Wind_Speed
10 9 9 8 8 7 7 6 5 4 4 4 3 3 4 5 6 8 10 11 12 13 13 14 14 14 15 17 18 19 20 21 22 22 23 23 23 23 23 23 22 22 23 24 25 26 28 29 29 29 28 27 27 27 28 29 27 25 25 25 27 27 26 26 25 24 24 26 27
11 10 8 7 6 5 4 3 3 3 2 2 1 0 2 4 5 7 9 10 10 10 11 11 12 12 13 15 16 17 19 20 21 21 22 22 22 22 22 22 22 22 22 22 23 24 26 27 28 29 28 27 27 27 29 29 28 26 24 25 27 28 28 28 28 27 26 25 25
12 11 9 8 7 6 5 5 5 4 3 3 2 2 2 3 4 4 5 6 6 7 8 8 9 9 10 12 13 15 16 17 18 18 19 19 19 19 19 19 19 20 21 21 22 22 24 25 26 27 27 28 28 27 27 28 28 26 24 23 25 27 28 28 29 29 28 27 26
13 11 10 8 7 6 6 5 5 4 4 3 3 2 2 2 2 2 2 2 3 3 4 4 5 6 7 8 9 10 11 12 12 13 13 14 14 14 15 16 16 16 17 18 19 20 21 22 23 24 26 28 30 27 25 26 27 26 24 23 23 25 27 28 29 29 29 29 28
15 14 12 10 8 7 7 6 5 5 5 5 5 5 5 6 6 6 6 5 4 4 3 2 2 2 2 3 3 3 4 5 6 6 7 7 7 8 10 11 11 11 12 14 15 16 17 18 20 23 25 27 27 25 24 24 24 25 24 22 21 22 24 25 27 28 29 28 28
19 17 15 13 12 11 11 10 11 11 12 11 11 12 13 13 12 11 10 10 9 8 7 6 5 5 4 4 4 4 4 4 4 3 3 3 3 4 5 5 5 5 7 8 10 12 14 16 18 21 22 22 20 18 17 17 19 21 22 22 22 21 20 21 23 24 26 26 27
21 20 19 18 17 17 17 17 17 17 17 16 17 17 16 15 14 13 12 12 11 11 11 10 10 9 9 9 9 8 8 7 7 6 6 5 4 3 2 2 2 1 0 2 5 7 10 12 14 15 15 14 12 11 10 11 14 16 18 20 21 20 19 18 19 21 22 24 25
22 21 20 20 18 18 18 18 18 17 17 17 17 17 16 15 15 14 12 12 12 12 12 12 12 12 11 11 10 10 9 9 9 8 8 8 8 8 7 7 6 5 4 3 1 1 3 6 7 7 6 6 6 5 4 5 6 7 11 16 19 20 19 18 19 20 21 23 24
21 20 20 19 18 18 17 17 16 16 16 17 17 17 16 16 15 14 13 13 13 12 13 13 14 13 13 13 12 11 11 10 10 10 10 10 10 10 10 10 10 9 8 6 5 3 2 1 2 3 4 4 5 6 6 5 3 2 5 10 12 15 16 17 17 18 19 20 20
20 20 20 19 19 18 18 17 17 16 17 17 17 17 17 16 16 15 15 15 14 13 13 14 14 14 14 14 14 14 13 12 12 12 12 12 12 12 12 12 11 11 10 9 7 6 5 5 6 7 7 8 9 10 10 9 7 3 1 2 5 7 9 11 12 13 14 15 15
20 20 19 19 19 18 18 18 18 18 17 18 18 18 18 18 17 17 16 16 15 15 15 15 15 15 15 15 15 15 14 14 14 15 15 15 15 15 15 14 13 12 11 10 9 8 8 8 9 10 11 10 11 12 12 11 10 8 6 4 1 1 3 5 7 9 9 9 10
19 19 18 18 18 18 18 18 18 18 18 18 18 18 18 19 18 18 17 17 17 17 17 16 15 16 16 16 16 16 16 16 16 17 18 19 19 19 19 18 17 15 14 12 11 10 9 9 10 11 11 12 12 13 14 14 13 11 10 9 6 4 2 3 4 5 4 4 5
17 17 17 17 17 17 18 18 18 18 18 18 18 18 18 18 18 18 18 18 18 18 17 17 16 16 16 16 16 16 16 16 17 18 19 20 21 21 21 21 20 19 18 17 15 14 13 12 12 12 13 14 15 16 17 16 16 15 14 13 11 8 6 6 6 5 5 5 4
17 17 17 17 17 17 18 18 18 18 18 18 18 18 18 18 18 18 18 18 18 18 18 18 18 17 17 17 16 16 16 16 17 18 19 20 21 21 22 22 22 22 22 21 19 18 17 17 16 16 16 17 18 19 19 19 19 18 17 16 15 14 13 12 12 11 10 9 9
16 17 17 16 16 17 18 18 18 18 18 18 18 17 17 17 18 18 18 18 18 18 18 18 18 18 17 16 16 15 15 16 16 18 19 20 20 21 22 22 23 23 23 23 22 21 21 20 20 20 19 20 20 20 21 21 21 21 20 20 19 19 18 18 18 17 15 14 14
16 17 17 17 17 17 18 18 18 18 18 18 17 17 17 17 17 17 17 18 18 17 17 17 17 17 17 16 15 15 15 15 16 17 19 20 21 21 21 22 23 23 23 23 23 23 22 22 22 22 22 22 22 23 23 23 23 23 23 23 22 22 22 22 22 21 20 19 19
16 16 16 17 17 17 17 18 18 17 17 17 17 17 17 17 17 17 17 17 17 17 17 17 17 17 16 16 15 15 14 15 16 17 19 20 21 21 21 22 22 23 23 23 23 23 23 23 22 22 23 23 23 24 24 24 24 25 25 25 25 25 24 24 24 24 23 22 22
15 15 16 16 17 17 17 17 17 17 16 16 16 16 16 16 17 17 17 17 17 17 17 17 17 17 16 16 15 15 15 15 17 18 19 20 21 21 22 22 22 22 23 23 23 23 23 23 23 23 23 23 23 23 23 24 24 24 24 25 25 25 25 25 25 25 25 24 23
14 15 15 15 16 16 16 16 16 16 16 16 16 16 16 16 16 16 16 17 17 16 16 17 17 17 16 16 16 16 16 16 17 18 19 21 21 22 22 22 22 22 23 23 23 23 23 22 22 22 22 22 22 22 22 22 23 23 23 24 24 24 25 25 25 25 24 24 24
14 14 14 15 15 15 15 15 15 15 15 15 15 15 16 16 16 16 16 17 17 16 16 16 17 17 16 16 16 16 16 17 17 18 19 20 21 22 22 22 22 22 22 23 22 22 22 22 21 21 21 21 21 21 21 21 21 22 22 22 23 23 23 23 23 23 23 23 22
14 14 14 14 14 14 15 15 15 15 15 15 15 15 16 16 16 16 17 17 17 16 16 17 17 17 17 16 16 16 16 16 17 18 19 20 21 22 22 22 22 22 22 22 22 21 21 20 20 20 20 20 20 20 20 20 20 21 21 21 21 22 22 22 22 21 21 21 21
13 13 13 13 14 14 14 14 14 14 14 14 15 15 15 16 16 16 16 16 16 16 17 17 17 17 17 17 17 16 16 16 16 17 18 19 20 21 22 22 22 22 22 21 21 20 20 19 19 19 19 19 20 20 20 20 20 20 21 21 21 21 22 22 21 21 21 20 20
12 12 12 13 13 13 13 13 13 13 13 14 14 14 14 15 15 16 16 16 16 16 17 17 17 17 17 17 17 17 17 16 17 17 17 18 19 20 20 21 21 21 21 21 20 19 19 18 18 19 19 19 20 20 20 20 20 20 21 21 21 21 22 22 22 21 21 20 20
11 11 11 11 12 12 12 12 12 12 13 13 13 13 14 14 14 15 15 15 16 16 16 17 17 17 17 17 17 17 17 17 17 17 17 17 17 18 19 20 21 21 21 20 19 19 18 18 18 19 19 19 20 20 21 21 21 21 21 21 22 22 22 22 21 21 20 20 19
10 10 10 10 11 11 11 11 11 11 12 12 12 13 13 13 14 14 14 15 15 16 16 16 16 16 16 16 17 17 18 18 18 18 18 18 18 18 19 20 20 20 20 20 19 18 18 19 19 19 19 20 20 20 21 21 21 22 22 22 22 22 22 22 21 21 20 20 19
10 10 10 10 10 10 10 10 10 11 11 11 12 12 12 12 13 13 13 14 14 15 15 15 15 16 16 16 16 17 18 18 19 19 19 19 19 20 20 20 20 20 19 19 19 18 19 19 19 19 20 20 20 21 21 21 21 21 22 22 22 22 22 22 22 21 21 20 19
9 9 9 10 9 9 10 10 10 10 10 10 11 11 11 12 12 12 13 13 14 14 14 15 15 15 15 16 16 17 18 18 18 18 18 18 19 20 20 20 20 19 19 19 19 19 19 19 19 20 20 20 21 21 21 21 21 21 21 21 22 22 22 22 22 22 22 21 20
9 9 9 9 9 9 10 10 10 10 10 10 10 10 11 11 11 11 12 13 13 14 14 14 15 15 15 15 16 17 17 17 17 17 17 17 18 19 19 20 19 18 18 19 19 19 19 19 19 20 20 21 21 21 21 21 21 21 21 21 21 22 22 22 23 23 22 22 21
8 8 8 8 8 9 9 9 9 9 9 9 9 10 10 10 11 11 12 12 13 13 14 14 14 14 15 15 16 16 16 16 16 16 16 16 16 17 18 19 19 18 17 18 19 20 19 19 20 20 21 21 21 21 21 20 20 21 21 21 21 21 22 22 22 23 23 23 22
7 7 7 7 8 8 8 8 9 9 9 9 9 9 9 10 10 11 11 12 13 13 13 13 13 14 15 15 16 16 16 16 16 16 15 15 15 15 16 17 18 17 17 17 19 20 20 20 20 20 21 21 21 20 20 20 20 20 20 21 21 21 22 22 22 22 23 23 23
7 7 7 7 7 7 7 8 8 8 9 9 8 9 9 9 10 10 11 12 12 13 13 13 13 14 15 15 15 16 16 16 15 15 15 14 14 14 14 15 17 17 17 17 18 19 20 21 21 21 21 21 20 20 20 20 20 20 20 20 21 21 21 22 22 22 22 22 22
7 7 6 6 6 7 7 7 8 8 8 8 8 8 8 9 9 10 10 11 11 12 11 12 12 13 14 15 15 16 16 15 15 15 15 14 13 13 13 14 16 17 16 16 17 18 19 20 21 21 21 20 20 20 19 19 19 19 19 19 20 20 21 21 22 22 22 22 22
7 7 7 7 7 7 7 7 7 7 7 7 7 7 8 8 9 9 10 10 11 11 11 11 11 12 12 13 14 15 15 15 15 14 14 13 12 11 12 13 15 16 16 16 16 17 18 19 21 22 21 20 19 19 19 19 19 19 19 19 20 20 21 21 21 21 22 21 21
8 8 8 7 7 7 7 7 7 7 7 7 7 7 8 8 9 9 10 10 10 11 11 11 12 12 12 13 14 14 14 15 14 14 13 12 11 10 10 11 13 14 15 14 15 16 17 18 20 22 22 20 19 19 19 19 19 20 20 20 20 21 21 22 22 22 22 21 21
8 8 8 8 8 8 8 8 7 7 7 7 7 8 8 8 9 9 10 10 10 11 11 11 12 12 12 13 13 13 14 13 13 12 12 11 10 9 9 9 11 13 14 13 14 15 16 16 18 21 22 21 20 20 20 20 21 21 22 22 23 23 23 24 23 23 23 22 22
9 9 9 9 8 8 8 8 8 8 7 7 8 8 8 8 9 9 10 10 10 10 10 11 11 11 11 11 11 12 12 12 12 12 11 11 10 8 8 8 10 13 14 14 13 14 15 16 17 20 22 22 22 21 21 22 22 23 24 24 25 25 25 25 25 25 24 24 23
9 9 9 9 9 9 8 8 8 8 8 8 8 8 8 8 8 9 9 9 9 9 9 10 10 9 9 9 9 10 11 12 12 11 11 11 11 10 9 8 10 13 14 14 14 15 16 16 18 20 21 22 22 22 22 22 23 23 24 24 25 25 26 26 26 26 25 25 24
9 9 9 9 9 8 8 8 8 7 7 7 7 7 7 7 7 8 8 8 8 8 9 9 9 9 9 9 9 10 11 12 12 12 12 13 12 12 11 10 11 12 14 14 14 15 16 16 18 19 21 21 21 21 21 22 22 23 23 24 24 24 25 25 25 25 25 25 24
9 9 9 8 8 8 7 7 7 7 7 7 7 6 6 6 7 7 7 8 8 9 9 9 9 9 10 9 9 10 11 12 13 13 14 14 14 13 12 12 12 12 13 13 14 14 15 16 17 18 19 20 20 20 20 20 21 21 22 22 23 23 23 23 23 23 23 23 23
9 8 8 8 7 7 7 6 6 6 6 6 6 6 6 6 7 7 8 9 10 10 10 10 11 11 11 11 10 10 11 12 13 14 14 14 13 12 12 11 12 12 12 12 13 14 15 15 16 17 18 19 18 18 18 18 19 20 21 21 22 22 22 22 22 22 22 22 22
8 8 8 7 7 7 7 6 6 6 6 6 6 6 7 7 8 9 10 10 11 11 12 12 12 12 12 12 12 12 12 13 13 13 13 13 12 12 11 11 12 12 12 12 13 14 14 15 15 16 17 18 18 17 17 18 19 19 20 21 21 21 21 21 21 21 21 21 21
Wind_Direction
132 149 164 175 184 191 196 201 207 213 222 233 241 262 280 288 291 294 296 296 297 298 297 297 297 297 297 297 297 297 297 297 297 297 296 296 295 295 294 292 290 287 284 281 278 277 277 278 278 279 280 284 289 290 286 278 269 257 246 239 238 240 243 245 247 249 252 255 257
85 89 93 95 96 97 97 96 97 100 106 114 122 311 303 302 300 298 298 298 298 298 298 298 298 298 298 297 298 299 299 299 298 298 298 298 298 297 296 294 292 289 286 283 279 277 275 275 275 275 278 283 288 288 283 275 269 260 249 240 237 238 240 242 244 246 247 248 250
71 70 69 66 64 64 68 71 69 63 59 56 39 357 331 319 310 305 304 305 305 303 301 301 301 301 299 298 299 300 300 300 300 300 299 299 299 298 296 293 291 288 285 283 280 277 275 274 273 274 277 282 286 285 278 271 267 262 254 244 238 237 240 242 245 248 250 252 254
74 71 67 62 59 58 60 58 50 40 33 36 27 14 9 18 30 39 29 3 343 330 319 311 306 304 303 301 301 303 304 306 304 302 300 299 300 299 295 291 288 285 283 280 278 276 275 275 275 276 278 282 283 277 268 264 262 260 256 249 241 236 237 240 244 247 250 253 255
79 76 72 67 64 64 64 63 60 61 65 69 75 82 86 87 88 87 85 82 75 62 47 30 14 339 319 311 309 313 324 335 324 313 306 302 307 304 298 293 286 282 278 275 274 275 276 278 280 281 280 279 273 265 258 256 257 258 258 255 249 241 237 236 239 243 247 250 252
83 82 81 79 80 82 85 86 88 89 90 91 94 96 96 94 93 91 89 85 79 75 75 77 78 84 89 93 96 90 77 57 37 20 8 352 327 308 299 298 278 267 266 269 272 275 278 281 282 280 276 269 258 249 246 248 251 255 259 261 259 253 246 240 239 241 245 249 252
85 86 87 87 88 90 93 94 94 94 94 94 93 92 90 89 88 87 84 82 81 80 79 78 79 81 84 87 88 87 81 76 69 63 59 55 46 41 52 80 107 123 183 271 268 270 274 276 274 268 260 249 236 230 232 237 244 252 258 261 261 260 256 252 250 250 252 254 255
85 86 87 89 90 91 93 93 94 94 93 91 89 86 84 84 84 84 85 84 81 77 73 70 68 68 69 71 73 75 74 72 70 69 67 66 66 68 71 74 78 83 86 86 111 258 271 266 253 238 223 211 195 184 185 204 217 242 257 258 258 259 260 260 261 260 260 261 262
83 84 86 87 88 89 89 90 91 91 90 88 86 84 82 80 80 80 80 77 75 72 68 65 62 61 60 60 61 63 64 64 64 63 63 63 63 64 66 67 68 71 75 79 79 68 49 223 188 159 137 118 109 102 99 103 118 188 244 250 252 254 256 259 261 262 263 265 266
80 81 82 83 83 83 84 85 85 85 84 83 82 81 80 78 76 73 72 71 70 69 66 62 60 58 56 55 54 54 55 56 55 55 54 55 55 57 58 58 60 61 64 67 70 72 77 88 81 84 88 84 81 78 76 73 69 71 161 231 238 242 247 252 255 260 264 267 269
79 79 80 79 79 80 80 79 79 79 78 78 77 77 76 74 72 70 68 68 67 66 64 62 60 57 55 53 51 50 50 51 51 51 50 50 49 50 50 50 51 52 55 58 60 63 68 72 71 71 71 68 67 64 62 59 56 53 50 51 59 218 240 249 256 263 269 272 272
80 80 81 81 81 80 79 78 76 75 74 73 73 73 72 71 70 68 67 65 64 63 61 60 59 57 56 53 51 49 49 49 50 50 50 49 48 47 46 46 45 45 46 47 47 47 49 51 50 50 50 50 49 47 46 45 46 44 42 43 42 32 354 315 290 290 295 295 289
80 81 82 82 82 82 80 79 77 76 74 73 72 71 71 70 69 68 66 64 63 61 60 59 59 58 57 55 52 51 50 50 51 52 53 52 50 48 46 44 43 42 41 40 39 39 39 38 36 35 35 34 33 33 33 33 35 35 35 33 30 22 9 2 6 19 27 19 2
82 82 82 81 81 81 81 80 79 78 76 75 73 72 71 71 70 68 67 65 64 63 62 62 61 60 59 58 56 54 54 54 56 57 58 56 54 51 49 46 44 42 41 39 38 36 36 34 33 31 30 30 28 27 26 26 27 27 27 25 24 23 20 17 19 20 20 15 9
83 83 83 82 81 80 79 79 79 79 79 78 76 74 73 72 71 70 69 67 67 66 65 65 64 63 63 62 61 60 60 60 62 63 63 62 59 57 54 52 49 46 43 41 38 36 34 33 31 30 29 29 28 27 25 25 25 25 25 24 23 21 19 17 14 11 8 5 1
82 83 83 83 81 80 79 78 78 79 79 79 78 77 76 75 74 73 72 71 70 69 69 68 68 67 67 66 66 65 64 65 66 68 68 68 66 63 60 58 55 51 47 43 40 37 35 33 32 31 31 30 30 29 29 29 29 28 28 27 25 23 21 18 15 12 9 5 3
79 80 81 81 81 80 79 79 79 79 79 80 80 79 79 78 77 76 75 74 73 72 71 71 71 71 71 71 70 70 70 70 71 73 74 74 71 68 65 62 59 54 50 46 43 40 38 36 36 35 35 35 35 34 34 34 34 33 33 31 29 28 25 22 20 16 13 10 8
77 78 78 79 79 80 80 80 80 81 81 81 81 81 81 81 80 80 79 77 75 74 73 72 72 73 74 75 75 75 76 77 78 79 79 77 74 71 67 64 61 57 53 50 48 45 43 42 40 40 40 40 40 40 39 39 39 38 37 35 34 32 29 27 25 22 19 17 14
76 77 78 78 79 80 81 82 83 83 83 83 83 83 83 84 83 83 82 80 78 76 74 73 73 73 74 76 78 79 81 82 82 82 81 78 75 71 68 65 62 60 58 56 54 51 49 47 46 45 45 45 45 44 43 42 41 40 39 38 37 35 33 32 29 27 25 23 21
75 76 77 78 79 81 82 83 84 84 84 84 84 84 84 84 84 84 83 82 80 78 75 73 72 72 73 75 78 80 81 82 82 81 80 77 75 72 68 65 63 61 60 59 57 55 53 51 50 50 50 50 49 48 46 44 43 41 40 39 38 37 35 34 32 30 28 27 25
74 75 76 77 78 80 82 82 83 84 84 83 83 83 82 82 82 82 82 81 80 79 77 75 73 72 72 73 75 77 79 79 80 79 78 76 73 71 68 64 62 60 60 59 57 56 54 52 51 51 51 52 52 50 48 46 45 43 42 40 39 37 36 34 33 32 30 28 27
73 74 76 77 78 79 80 81 82 82 82 81 80 80 79 79 79 79 79 79 79 79 77 75 73 71 70 70 71 72 74 75 76 77 76 75 72 70 67 63 60 58 57 56 55 54 52 50 49 48 48 49 50 50 49 47 46 44 43 41 40 38 36 34 32 31 29 28 25
74 75 77 78 78 79 79 80 80 80 79 79 78 77 77 76 76 76 76 77 76 75 74 74 72 71 69 68 68 68 68 69 70 72 74 74 72 69 65 60 56 55 54 53 51 51 50 48 46 44 43 44 45 46 46 45 44 43 42 41 40 38 36 34 32 30 28 26 24
73 75 77 77 78 79 79 79 79 78 77 77 76 75 74 73 72 72 72 71 71 71 71 70 70 69 68 67 66 66 65 64 65 66 68 69 68 66 61 55 50 49 50 50 49 47 46 45 44 41 40 39 40 40 40 40 40 39 39 38 37 36 35 34 32 30 28 26 24
71 73 74 76 76 76 76 75 74 74 73 72 71 70 69 68 67 66 65 65 65 65 66 66 66 65 65 64 63 62 61 60 60 60 61 62 61 60 56 51 44 41 42 46 46 45 43 42 40 38 37 35 35 35 35 35 35 34 34 33 32 32 32 31 31 30 28 26 24
68 68 69 70 70 70 69 67 66 66 66 66 65 65 64 63 61 60 59 58 58 59 60 61 61 60 60 59 58 58 57 56 55 55 55 56 56 55 53 48 40 33 32 37 41 42 41 38 36 34 33 31 31 31 31 32 32 31 30 29 28 27 27 27 27 27 27 26 24
64 64 63 63 63 62 61 60 59 59 59 59 59 59 58 58 57 56 54 53 53 54 54 54 54 55 55 55 54 54 54 53 52 51 50 51 52 53 53 50 42 30 23 25 32 36 37 35 33 30 28 27 25 25 26 28 28 28 28 27 26 24 23 23 22 22 22 22 21
60 59 59 59 58 58 57 56 55 55 54 53 53 53 53 53 53 52 51 50 50 49 49 49 48 48 49 49 50 51 51 50 50 49 47 46 47 49 52 51 47 34 21 17 22 28 32 32 30 27 24 22 21 21 22 24 25 26 25 25 24 22 21 20 18 17 17 17 17
55 55 55 55 55 55 55 54 53 52 50 49 49 49 49 49 48 48 48 48 47 46 45 44 43 42 41 42 45 47 47 47 47 46 45 43 43 45 48 51 50 40 25 15 15 19 23 26 27 24 21 19 17 17 18 20 22 23 22 21 20 19 18 17 15 14 13 12 12
50 50 51 51 52 53 53 52 51 49 48 47 47 46 45 45 45 45 45 46 45 44 43 41 39 36 35 36 39 41 43 43 43 42 41 39 38 39 42 46 49 44 32 20 15 13 14 17 21 21 19 15 13 13 14 16 18 19 19 18 17 16 15 14 13 11 10 9 8
47 46 46 47 48 49 50 50 49 47 46 45 44 43 43 43 43 44 44 44 44 43 41 39 36 33 32 33 35 36 38 39 38 38 38 37 35 33 33 36 42 42 35 23 17 13 9 9 13 16 16 13 10 10 11 13 15 17 17 16 15 14 13 12 11 10 9 8 6
45 44 43 43 45 46 47 47 47 46 44 43 42 42 42 42 42 42 43 44 44 44 42 38 35 33 31 30 31 33 35 36 36 35 35 35 34 30 27 28 34 38 35 23 18 14 10 4 5 8 12 11 8 8 9 11 13 15 16 16 15 14 12 11 11 10 9 8 7
43 42 40 40 41 43 43 44 44 43 42 42 41 41 41 41 40 40 41 43 44 44 42 39 36 33 31 29 29 30 32 33 34 34 34 34 33 30 26 25 31 37 36 25 18 15 11 3 359 1 6 8 7 8 9 11 13 15 15 15 14 13 12 11 11 10 10 9 8
40 39 38 37 38 39 40 40 40 39 39 38 38 39 40 39 39 39 39 40 41 41 39 37 35 32 30 28 27 27 29 31 32 33 33 33 33 30 27 27 33 39 40 30 21 18 14 4 356 355 359 5 7 9 10 12 13 14 14 14 14 13 12 11 10 10 10 9 9
36 35 35 34 35 35 36 36 35 35 34 34 35 36 37 37 36 36 35 35 36 37 36 34 32 30 27 25 25 26 27 30 32 34 34 35 35 33 32 34 38 44 46 38 26 22 19 9 356 352 355 2 7 11 12 14 14 13 13 12 12 12 11 10 10 10 9 9 10
34 33 32 31 31 31 32 32 32 31 30 29 31 32 33 33 33 32 32 33 33 34 34 34 32 30 26 23 23 25 27 31 34 36 37 38 39 39 38 40 44 48 48 42 29 24 22 15 2 354 355 1 7 12 13 14 14 12 11 10 10 10 9 9 8 8 8 8 9
33 32 30 29 28 28 29 29 28 27 27 27 28 29 30 31 31 31 31 32 32 34 35 36 35 32 29 26 25 26 29 33 37 39 40 40 41 41 40 39 40 43 44 40 30 24 22 16 5 357 356 1 7 10 11 12 11 10 8 7 7 7 7 6 6 6 6 5 6
31 31 30 28 27 26 27 27 27 26 26 27 28 28 29 30 31 31 32 34 35 36 37 38 38 36 34 33 32 31 32 34 36 38 38 37 37 36 34 31 29 32 35 36 29 23 19 14 6 359 356 0 5 7 8 8 7 6 5 4 5 5 4 4 3 3 2 2 1
31 30 29 28 27 26 26 27 27 28 28 29 29 29 29 30 31 32 34 36 38 40 41 43 43 43 42 40 38 38 37 36 35 34 34 33 32 30 29 26 22 22 26 31 29 23 17 13 8 1 358 0 3 5 4 4 3 2 1 1 2 2 2 2 1 0 359 358 357
30 29 29 28 27 27 27 29 30 32 32 32 31 31 31 32 33 33 33 35 37 38 41 44 46 46 45 43 41 40 39 37 35 33 31 30 29 27 26 25 21 19 21 27 28 24 18 13 10 5 1 1 2 3 2 1 360 359 359 360 360 360 359 359 359 358 356 355 353
29 28 28 27 27 27 28 30 31 32 33 32 32 32 32 33 33 34 34 34 34 35 36 38 41 41 41 39 37 36 36 36 36 33 31 30 29 29 28 26 24 21 21 25 28 25 20 15 13 10 5 2 2 2 1 360 358 358 359 359 359 358 357 356 356 355 354 353 352